This demonstration page uses our WeatherBlox Daily Observations layout. Learn more.

41.55636, -103.73856

Hourly Observations for August 5, 2015

Temp ( °F °C ) Dew Point ( °F °C ) Humidity (%) Winds ( mph kmh ) Pressure ( in mb ) Visibility ( mi km ) Precip ( " mm )
12:37 am 00:37 Mostly Cloudy with Mist and Fog 62 16.7 61 16.1 96 96 E 6 9 29.94 1014 2.5 4.02335 0 0
12:46 am 00:46 Mostly Cloudy with Mist and Fog 63 17 61 16 94 94 E 5 7 29.94 1014 1 1.60934 0 0
12:53 am 00:53 Mostly Cloudy with Mist and Fog 62 16.7 62 16.7 100 100 ESE 3 6 29.96 1014 2 3.21868 0 0
12:57 am 00:57 Partly Cloudy with Mist and Fog 62 16.7 62 16.7 100 100 ESE 3 6 29.94 1014 4 6.43736 0 0
1:53 am 01:53 Clear with Mist and Fog 61 16.1 60 15.6 97 97 ESE 5 7 29.95 1014 6 9.65604 0 0
2:21 am 02:21 Partly Cloudy with Mist and Fog 61 16.1 59 15 93 93 Calm 29.94 1014 6 9.65604 0 0
2:30 am 02:30 Mostly Cloudy with Mist and Fog 61 16 59 15 94 94 Calm 29.94 1014 5 8.0467 0 0
2:51 am 02:51 Cloudy with Mist and Fog 61 16 61 16 100 100 Calm 29.94 1014 1.75 2.816345 0 0
2:53 am 02:53 Cloudy with Mist and Fog 61 16.1 60 15.6 97 97 Calm 29.95 1014 0.75 1.207005 0 0
2:58 am 02:58 Mostly Cloudy with Fog 61 16 61 16 100 100 Calm 29.94 1014 0.25 0.402335 0 0
3:53 am 03:53 Mostly Cloudy with Fog 60 15.6 60 15.6 100 100 ENE 5 7 29.97 1015 0.25 0.402335 0 0
4:44 am 04:44 Mostly Cloudy with Fog 61 16 59 15 94 94 Calm 29.94 1014 0.25 0.402335 0 0
4:53 am 04:53 Mostly Cloudy with Fog 60 15.6 59 15 96 96 Calm 29.96 1015 0.5 0.80467 0 0
5:09 am 05:09 Mostly Cloudy with Fog 60 15.6 59 15 96 96 Calm 29.94 1014 0.25 0.402335 0 0
5:20 am 05:20 Mostly Cloudy with Fog 59 15 59 15 100 100 Calm 29.94 1014 0.25 0.402335 0 0
5:29 am 05:29 Mostly Cloudy with Fog 59 15 59 15 100 100 SW 3 6 29.94 1014 0.25 0.402335 0 0
5:53 am 05:53 Mostly Cloudy with Fog 60 15.6 59 15 96 96 Calm 29.96 1015 0.25 0.402335 0 0
6:53 am 06:53 Mostly Cloudy with Fog 59 15 59 15 100 100 Calm 29.96 1015 5 8.0467 0 0
7:12 am 07:12 Mostly Cloudy with Fog 59 15 59 15 100 100 Calm 29.94 1014 0.25 0.402335 0 0
7:34 am 07:34 Mostly Cloudy with Fog 61 16 59 15 94 94 Calm 29.97 1015 5 8.0467 0 0
7:53 am 07:53 Mostly Cloudy with Fog 60 15.6 60 15.6 100 100 Calm 29.98 1015 5 8.0467 0 0
8:35 am 08:35 Mostly Cloudy with Fog 62 16.7 61 16.1 96 96 Calm 29.94 1014 0.25 0.402335 0 0
8:49 am 08:49 Mostly Cloudy with Mist and Fog 63 17 63 17 100 100 Calm 29.94 1014 0.75 1.207005 0 0
8:53 am 08:53 Cloudy with Mist and Fog 62 16.7 62 16.7 100 100 Calm 29.98 1015 1 1.60934 0 0
9:05 am 09:05 Cloudy with Mist and Fog 63 17.2 62 16.7 97 97 Calm 29.94 1014 3 4.82802 0 0
9:42 am 09:42 Partly Cloudy 66 19 63 17 88 88 SE 3 6 29.88 1012 9 14.48406 0 0
9:53 am 09:53 Sunny 68 20 62 16.7 81 81 VRB 5 7 29.95 1014 10 16.0934 0 0
10:53 am 10:53 Sunny 71 21.7 63 17.2 76 76 SE 6 9 29.95 1014 9 14.48406 0 0
11:53 am 11:53 Sunny 77 25 62 16.7 60 60 ESE 8 13 29.93 1014 10 16.0934 0 0
12:53 pm 12:53 Sunny 81 27.2 63 17.2 54 54 ESE 8 13 29.89 1012 10 16.0934 0 0
1:53 pm 13:53 Sunny 85 29.4 62 16.7 46 46 E 10 17 29.86 1011 10 16.0934 0 0
2:53 pm 14:53 Sunny 86 30 65 18.3 49 49 ESE 12 19 29.84 1010 10 16.0934 0 0
3:53 pm 15:53 Partly Cloudy with Nearby Thunderstorms 82 27.8 66 18.9 58 58 E 7 11 29.85 1011 10 16.0934 0 0
4:11 pm 16:11 Cloudy 81 27.2 67 19.4 62 62 ENE 7 11 29.71 1006 10 16.0934 0 0
4:34 pm 16:34 Partly Cloudy with Nearby Thunderstorms 88 31 54 12 31 31 E 12 19 29.59 1002 10 16.0934 0 0
4:49 pm 16:49 Sunny 84 29 61 16 45 45 S 13 20 29.62 1003 10 16.0934 0 0.0254
4:53 pm 16:53 Sunny 84 28.9 61 16.1 46 46 SE 9 15 29.82 1010 10 16.0934 0 0.0254
5:53 pm 17:53 Sunny 79 26.1 59 15 50 50 SSE 10 17 29.81 1010 10 16.0934 0 0
6:53 pm 18:53 Sunny 78 25.6 59 15 52 52 S 9 15 29.82 1010 10 16.0934 0 0
7:53 pm 19:53 Sunny 77 25 58 14.4 52 52 SE 10 17 29.79 1009 10 16.0934 0 0
8:53 pm 20:53 Clear 75 23.9 59 15 58 58 SE 9 15 29.8 1009 10 16.0934 0 0
9:53 pm 21:53 Clear 70 21.1 61 16.1 73 73 ESE 7 11 29.8 1009 10 16.0934 0 0
10:53 pm 22:53 Clear 71 21.7 60 15.6 68 68 SE 13 20 29.78 1008 10 16.0934 0 0
11:27 pm 23:27 Clear with Nearby Thunderstorms 74 23.3 61 16.1 64 64 SSE 15 24 29.68 1005 10 16.0934 0 0
11:48 pm 23:48 Clear 73 23 61 16 65 65 SE 14 22 29.68 1005 10 16.0934 0 0
11:53 pm 23:53 Clear 74 23.3 61 16.1 64 64 SE 12 19 29.73 1007 10 16.0934 0 0

Powered by AerisWeather